Volver al catálogo

BREEZE-M DEB

ActivoHEO
NORAD 39326·DEBRIS·🇷🇺 Russia

Lanzado Mar 14, 2008 desde Baikonur Cosmodrome

Loading…

Próximos Pases (próximas 24 horas)

TLE

EnvejeciendoSource: Space-Track

Época: Aug 25, 2026, 00:15 UTC

1 39326U 08011DD  26237.01109235 -.00000058  00000-0  00000-0 0  9998
2 39326  48.1054 198.1150 5814466 135.2299 289.9675  2.89425561  3323

Sigue BREEZE-M DEB en tiempo real con AllMySat

Download on the App Store